Location: G�ndlingen
(48.0142°N, 7.6396°E)
Time: 08:36:52
(UTC+00:00)

Cosmos 1455 - Pass Details

Date: 05 July 2020
Orbit: 500 x 521 km, 82.5° (Epoch: 04 August)

Event Time Altitude Azimuth Distance (km) Brightness Sun altitude
Rises 20:05:55 0° 352° (N) 2,643 6.7 -5.3°
Reaches altitude 10° 20:08:04 10° 354° (N) 1,755 5.7 -5.6°
Maximum altitude 20:11:54 72° 79° (E) 551 2.2 -6.0°
Drops below altitude 10° 20:15:44 10° 165° (SSE) 1,749 4.4 -6.5°
Enters shadow 20:16:48 - 166° (SSE) 2,185 4.8 -6.6°
